World > North America > United States > California > Blythe   City of Blythe, CA

Blythe, CA Hourly Weather Updates

Feedback E-mail the Weather

Quick Clicks

Blythe, CA Weather Maps

°F °C°F °C
Blythe Weather Map
UTC Time: 4/19/2024, 18:37
Your Time:

Blythe, CA Regional Weather

Expires:202404191900;;026226
ASUS45 KPSR 191810
RWRAZ 

ARIZONA HOURLY REGIONAL WEATHER ROUNDUP
NATIONAL WEATHER SERVICE PHOENIX AZ
1100 AM MST FRI APR 19 2024

NOTE: FAIR INDICATES FEW OR NO CLOUDS BELOW 12,000 FEET WITH NO
SIGNIFICANT WEATHER AND/OR OBSTRUCTIONS TO VISIBILITY.


CAZ041-043-047-048-061-525>527-560>570-191900-
SOUTHERN CALIFORNIA
  
CITY           SKY/WX    TMP DP  RH WIND       PRES   REMARKS
DOWNTOWN L.A.  CLOUDY    64  51  62 CALM      30.00S TC  18           
6HR MIN TEMP:  58; 6HR MAX TEMP:  64;                                

L.A. AIRPORT   PTSUNNY   63  52  67 NW6       30.00R TC  17           
6HR MIN TEMP:  57; 6HR MAX TEMP:  63;                                

SAN DIEGO      PTSUNNY   64  50  60 SW6       30.01R TC  18           
6HR MIN TEMP:  60; 6HR MAX TEMP:  65;                                

BURBANK        CLOUDY    59  50  72 VRB5      29.99R HAZE    TC  15   
6HR MIN TEMP:  55; 6HR MAX TEMP:  59;                                

ONTARIO        PTSUNNY   60  48  64 SW6       29.99S HAZE    TC  16   
6HR MIN TEMP:  54; 6HR MAX TEMP:  60;                                

RIVERSIDE      CLOUDY    57  52  83 SW5       29.99S HAZE    TC  14   
6HR MIN TEMP:  54; 6HR MAX TEMP:  57;                                

PALM SPRINGS   SUNNY     86  34  15 N5        29.84S TC  30           
6HR MIN TEMP:  60; 6HR MAX TEMP:  86;                                

EL CENTRO NAS  MOSUNNY   85  38  18 SE7       29.83S TC  29           
6HR MIN TEMP:  56; 6HR MAX TEMP:  85;                                

IMPERIAL       SUNNY     83  39  21 SE6       29.81S TC  28           
6HR MIN TEMP:  57; 6HR MAX TEMP:  83;                                

BLYTHE         SUNNY     82  36  19 CALM      29.83S TC  28           
6HR MIN TEMP:  59; 6HR MAX TEMP:  83;                                

NEEDLES        MOSUNNY   85  33  15 CALM      29.83F TC  29           
6HR MIN TEMP:  64; 6HR MAX TEMP:  85;                                

$$


SKY/WX - Weather  TMP - Temperature  DP - Dew Point  RH - Humidity
WIND - Wind Direction/Speed PRES - Barometric Pressure VSB - Visibility
WCI - Wind Chill Index E13G22 Wind - East Wind 13 mph/Gusts of 22 mph

Trending Headlines

Trending Entertainment Headlines

Blythe Radar Loop

Use the map search tool if you want to place a location marker on the radar map...

Blythe Quick Facts

National Two Day Weather Forecast


E-mail the Blythe Weather Forecast

Voice your opinion or tell us about page issues...